Tracking 27111 objects as of 28-Mar-2023
HD Live streaming from Space Station
objects crossing your sky now

SL-12 DEB

Track SL-12 DEB now!
10-day predictions


NORAD ID: 27805
Int'l Code: 1992-047L
Perigee: 362.7 km
Apogee: 11,763.1 km
Inclination: 65.1 °
Period: 230.0 minutes
Semi major axis: 12433 km
RCS: 0.048 m2 (small)
Launch date: July 30, 1992
Source: Commonwealth of Independent States (former USSR) (CIS)
Launch site: TYURATAM MISSILE AND SPACE COMPLEX (TTMTR)

Note: This is SATELLITE DEBRIS
Your satellite tracking list
Your tracking list is empty




NASA's NSSDC Master Catalog

Two Line Element Set (TLE):
1 27805U 92047L   23085.96534669  .00064845  00000-0  18440-1 0  9995
2 27805  65.1351 265.1915 4584391 173.3993 195.8896  6.26167714446812
Source of the keplerian elements: AFSPC